Volver al catálogo

CZ-6A DEB

ActivoPO
NORAD 61357·DEBRIS·🇨🇳 China

Lanzado Aug 6, 2024 desde Taiyuan Satellite Launch Center

Loading…

Próximos Pases (próximas 24 horas)

TLE

ActualizadoSource: Space-Track

Época: Sep 14, 2026, 08:55 UTC

1 61357U 24140VW  26257.37203303  .00001775  00000-0  71672-3 0  9992
2 61357  88.6834 235.5339 0101609 181.0654 179.0339 14.24738313105276

Sigue CZ-6A DEB en tiempo real con AllMySat

Download on the App Store